Flag for San Marino Weather past 2 weeks in San Marino, San Marino

Now
45 °F

Scattered clouds.


Feels Like: 38 °F
Forecast: 22 / 36 °F
Wind: 14 mph from Northwest

Location: Rimini Airport

Current Time: Feb 1, 2015 at 2:25:32 PM

Latest Report: Feb 1, 2015 at 1:45 PM


Visibility: N/A

Pressure: 29.24 "Hg

Humidity: 71%

Dew point: 36 °F

Location of San MarinoLocation

Historic Weather in San Marino — Graph

°F

San Marino temperature yesterday

Maximum temperature yesterday: 52 °F (at 2:45 PM)
Minimum temperature yesterday: 30 °F (at 6:45 AM)
Average temperature yesterday: 45 °F

Past Weeks' High & Low Weather Summary

 TemperatureHumidityPressure
High63 °F (Jan 17, 1:15 PM)100% (Jan 17, 10:15 PM)30.21 "Hg (Jan 17, 10:15 PM)
Low30 °F (Jan 31, 6:45 AM)42% (Jan 17, 2:15 PM)28.80 "Hg (Jan 30, 6:45 AM)
Average44 °F84%29.82 "Hg
* Reported Jan 17 1:15 PM — Feb 1 1:15 PM, San Marino, Weather by CustomWeather, © 2014

Note: Actual official high and low records may vary slightly from our data, if they occured in-between our weather recording intervals... More about our weather records

Advertising

San Marino weather history for previous 24 hours

 ConditionsComfort  
Time TempWeatherWind HumidityBarometerVisibility
1:15 PM
Feb 1
45 °FPartly sunny.9 mph76%29.24 "HgN/A
12:45 PM45 °FPartly sunny.12 mph71%29.24 "HgN/A
12:15 PM45 °FPartly sunny.9 mph76%29.24 "HgN/A
11:45 AM41 °FPartly sunny.7 mph87%29.24 "Hg5 mi
11:15 AM41 °FPartly sunny.6 mph87%29.24 "Hg4 mi
10:45 AM39 °FBroken clouds.8 mph93%29.27 "Hg4 mi
10:15 AM39 °FFog.10 mph93%29.24 "Hg3 mi
9:45 AM39 °FFog.10 mph93%29.21 "Hg3 mi
9:15 AM39 °FFog.10 mph93%29.21 "Hg3 mi
8:45 AM37 °FFog.12 mph100%29.21 "Hg2 mi
8:15 AM39 °FFog.10 mph93%29.21 "Hg2 mi
7:45 AM39 °FFog.12 mph100%29.18 "Hg2 mi
7:15 AM37 °FPassing clouds.8 mph100%29.18 "Hg4 mi
6:45 AM37 °FPassing clouds.7 mph100%29.15 "Hg5 mi
6:45 PM
Jan 31
46 °FPassing clouds.2 mph76%29.12 "HgN/A
6:15 PM46 °FPassing clouds.7 mph76%29.12 "HgN/A
5:45 PM46 °FPassing clouds.8 mph76%29.12 "HgN/A
5:15 PM46 °FScattered clouds.9 mph82%29.12 "HgN/A
4:45 PM48 °FScattered clouds.8 mph76%29.12 "HgN/A
4:15 PM48 °FScattered clouds.8 mph71%29.12 "HgN/A
3:45 PM48 °FScattered clouds.10 mph76%29.12 "HgN/A
3:15 PM50 °FScattered clouds.9 mph71%29.12 "HgN/A
2:45 PM52 °FPassing clouds.8 mph62%29.12 "HgN/A
2:15 PM50 °FPassing clouds.2 mph54%29.12 "HgN/A
Weather by CustomWeather, © 2014

See weather overviewHow to use our weather pages